TimeCDT,TemperatureF,Dew PointF,Humidity,Sea Level PressureIn,VisibilityMPH,Wind Direction,Wind SpeedMPH,Gust SpeedMPH,PrecipitationIn,Events,Conditions,WindDirDegrees,DateUTC
12:15 AM,68.0,66.2,94,29.91,7.0,ESE,9.2,-,N/A,,Clear,110,2013-09-09 05:15:00
12:35 AM,68.0,66.2,94,29.90,6.0,ESE,10.4,-,N/A,,Clear,110,2013-09-09 05:35:00
12:55 AM,68.0,66.2,94,29.90,6.0,ESE,10.4,-,N/A,,Clear,110,2013-09-09 05:55:00
1:15 AM,68.0,66.2,94,29.89,5.0,ESE,10.4,-,N/A,,Scattered Clouds,110,2013-09-09 06:15:00
1:35 AM,68.0,66.2,94,29.89,5.0,ESE,9.2,-,N/A,,Overcast,110,2013-09-09 06:35:00
1:55 AM,68.0,66.2,94,29.89,5.0,ESE,10.4,-,N/A,,Mostly Cloudy,110,2013-09-09 06:55:00
2:15 AM,68.0,66.2,94,29.88,4.0,ESE,9.2,-,N/A,,Mostly Cloudy,120,2013-09-09 07:15:00
2:35 AM,68.0,66.2,94,29.87,4.0,ESE,9.2,-,N/A,,Overcast,120,2013-09-09 07:35:00
2:55 AM,68.0,66.2,94,29.87,4.0,ESE,10.4,-,N/A,,Overcast,120,2013-09-09 07:55:00
3:15 AM,68.0,66.2,94,29.86,3.0,ESE,10.4,-,N/A,,Overcast,120,2013-09-09 08:15:00
3:35 AM,68.0,66.2,94,29.86,3.0,ESE,9.2,16.1,N/A,,Overcast,120,2013-09-09 08:35:00
3:55 AM,68.0,66.2,94,29.85,2.5,ESE,8.1,-,N/A,,Overcast,120,2013-09-09 08:55:00
4:15 AM,68.0,66.2,94,29.86,2.5,ESE,6.9,-,N/A,,Overcast,110,2013-09-09 09:15:00
4:35 AM,68.0,66.2,94,29.85,2.5,ESE,5.8,-,N/A,,Overcast,120,2013-09-09 09:35:00
4:55 AM,68.0,66.2,94,29.85,2.0,ESE,6.9,-,N/A,,Overcast,120,2013-09-09 09:55:00
5:15 AM,68.0,66.2,94,29.85,2.5,SE,11.5,-,N/A,,Overcast,130,2013-09-09 10:15:00
5:35 AM,68.0,66.2,94,29.84,2.5,SE,9.2,-,N/A,,Overcast,130,2013-09-09 10:35:00
5:55 AM,68.0,66.2,94,29.84,2.0,SE,10.4,-,N/A,,Overcast,130,2013-09-09 10:55:00
6:15 AM,68.0,66.2,94,29.84,2.0,SE,8.1,-,N/A,,Overcast,140,2013-09-09 11:15:00
6:35 AM,68.0,68.0,100,29.85,2.0,SE,9.2,-,N/A,,Overcast,140,2013-09-09 11:35:00
6:55 AM,68.0,68.0,100,29.85,1.2,SE,9.2,-,N/A,,Overcast,130,2013-09-09 11:55:00
7:15 AM,68.0,68.0,100,29.85,0.5,SE,9.2,-,N/A,Fog,Fog,130,2013-09-09 12:15:00
7:35 AM,69.8,68.0,94,29.84,0.2,SSE,9.2,-,N/A,Fog,Fog,150,2013-09-09 12:35:00
7:55 AM,69.8,68.0,94,29.84,0.2,SSE,9.2,-,N/A,Fog,Fog,150,2013-09-09 12:55:00
8:15 AM,69.8,68.0,94,29.84,0.2,SSE,8.1,-,N/A,Fog,Fog,150,2013-09-09 13:15:00
8:35 AM,69.8,68.0,94,29.84,0.2,SSE,8.1,-,N/A,Fog,Fog,150,2013-09-09 13:35:00
8:55 AM,69.8,69.8,100,29.84,0.2,South,10.4,-,N/A,Fog,Fog,170,2013-09-09 13:55:00
9:15 AM,71.6,69.8,94,29.84,0.5,South,10.4,-,N/A,,Overcast,180,2013-09-09 14:15:00
9:35 AM,71.6,69.8,94,29.84,1.5,South,12.7,-,N/A,,Overcast,180,2013-09-09 14:35:00
9:55 AM,73.4,69.8,88,29.84,2.5,South,9.2,-,N/A,,Overcast,180,2013-09-09 14:55:00
10:15 AM,75.2,69.8,83,29.83,4.0,South,10.4,-,N/A,,Haze,180,2013-09-09 15:15:00
10:35 AM,77.0,71.6,83,29.83,6.0,South,10.4,-,N/A,,Haze,170,2013-09-09 15:35:00
10:55 AM,80.6,71.6,74,29.83,8.0,South,10.4,-,N/A,,Clear,180,2013-09-09 15:55:00
11:15 AM,82.4,71.6,70,29.82,9.0,South,12.7,-,N/A,,Clear,180,2013-09-09 16:15:00
11:35 AM,84.2,71.6,66,29.81,10.0,South,11.5,17.3,N/A,,Clear,190,2013-09-09 16:35:00
11:55 AM,86.0,71.6,62,29.82,10.0,South,12.7,-,N/A,,Clear,180,2013-09-09 16:55:00
12:15 PM,86.0,69.8,58,29.81,10.0,South,11.5,-,N/A,,Clear,180,2013-09-09 17:15:00
12:35 PM,87.8,69.8,55,29.81,10.0,SSW,13.8,-,N/A,,Clear,200,2013-09-09 17:35:00
12:55 PM,87.8,69.8,55,29.80,10.0,South,11.5,-,N/A,,Clear,190,2013-09-09 17:55:00
1:15 PM,87.8,69.8,55,29.79,10.0,South,15.0,20.7,N/A,,Clear,180,2013-09-09 18:15:00
1:35 PM,89.6,71.6,55,29.79,10.0,SSW,13.8,-,N/A,,Clear,200,2013-09-09 18:35:00
1:55 PM,89.6,69.8,52,29.79,10.0,South,15.0,21.9,N/A,,Clear,190,2013-09-09 18:55:00
2:15 PM,89.6,69.8,52,29.78,10.0,South,13.8,19.6,N/A,,Clear,190,2013-09-09 19:15:00
2:35 PM,91.4,69.8,49,29.78,10.0,South,15.0,23.0,N/A,,Clear,190,2013-09-09 19:35:00
2:55 PM,93.2,68.0,44,29.77,10.0,South,17.3,24.2,N/A,,Clear,190,2013-09-09 19:55:00
3:15 PM,93.2,68.0,44,29.77,10.0,SSW,16.1,24.2,N/A,,Clear,200,2013-09-09 20:15:00
3:35 PM,93.2,68.0,44,29.76,10.0,South,19.6,26.5,N/A,,Clear,190,2013-09-09 20:35:00
3:55 PM,93.2,68.0,44,29.76,10.0,SSW,17.3,-,N/A,,Clear,200,2013-09-09 20:55:00
4:15 PM,95.0,66.2,39,29.76,10.0,SSW,17.3,-,N/A,,Clear,200,2013-09-09 21:15:00
4:35 PM,95.0,64.4,36,29.76,10.0,SSW,15.0,23.0,N/A,,Clear,210,2013-09-09 21:35:00
4:55 PM,95.0,64.4,36,29.76,10.0,SSW,15.0,24.2,N/A,,Clear,210,2013-09-09 21:55:00
5:15 PM,95.0,62.6,34,29.76,10.0,SSW,16.1,21.9,N/A,,Clear,210,2013-09-09 22:15:00
5:35 PM,95.0,62.6,34,29.77,10.0,SW,17.3,26.5,N/A,,Clear,220,2013-09-09 22:35:00
5:55 PM,93.2,62.6,36,29.77,10.0,SW,17.3,26.5,N/A,,Clear,220,2013-09-09 22:55:00
6:15 PM,93.2,60.8,34,29.77,10.0,SW,13.8,21.9,N/A,,Clear,220,2013-09-09 23:15:00
6:35 PM,91.4,60.8,36,29.77,10.0,SSW,13.8,19.6,N/A,,Clear,210,2013-09-09 23:35:00
6:55 PM,89.6,62.6,40,29.77,10.0,SSW,12.7,-,N/A,,Clear,210,2013-09-09 23:55:00
7:15 PM,87.8,62.6,43,29.77,10.0,SSW,12.7,-,N/A,,Clear,210,2013-09-10 00:15:00
7:35 PM,87.8,60.8,40,29.78,10.0,SSW,10.4,17.3,N/A,,Clear,210,2013-09-10 00:35:00
7:55 PM,86.0,60.8,43,29.79,10.0,SSW,9.2,15.0,N/A,,Clear,210,2013-09-10 00:55:00
8:15 PM,82.4,62.6,51,29.79,10.0,SSW,8.1,-,N/A,,Clear,200,2013-09-10 01:15:00
8:35 PM,80.6,62.6,54,29.80,10.0,SSW,9.2,-,N/A,,Clear,210,2013-09-10 01:35:00
8:55 PM,80.6,62.6,54,29.80,10.0,SSW,10.4,-,N/A,,Clear,200,2013-09-10 01:55:00
9:15 PM,80.6,62.6,54,29.81,10.0,SW,8.1,-,N/A,,Clear,220,2013-09-10 02:15:00
9:35 PM,80.6,62.6,54,29.82,10.0,SSW,9.2,-,N/A,,Clear,200,2013-09-10 02:35:00
9:55 PM,78.8,62.6,57,29.82,10.0,SSW,8.1,-,N/A,,Clear,200,2013-09-10 02:55:00
10:15 PM,78.8,62.6,57,29.83,10.0,SSW,8.1,-,N/A,,Clear,210,2013-09-10 03:15:00
10:35 PM,78.8,62.6,57,29.83,10.0,SSW,8.1,-,N/A,,Clear,210,2013-09-10 03:35:00
10:55 PM,77.0,62.6,61,29.84,-9999.0,SSW,6.9,-,N/A,,Clear,200,2013-09-10 03:55:00
11:15 PM,75.2,62.6,65,29.84,10.0,SSW,8.1,-,N/A,,Clear,200,2013-09-10 04:15:00
11:35 PM,75.2,62.6,65,29.84,10.0,SSW,8.1,-,N/A,,Clear,200,2013-09-10 04:35:00
11:55 PM,77.0,62.6,61,29.84,10.0,SSW,10.4,-,N/A,,Clear,200,2013-09-10 04:55:00